Weather History for KMGG - June, 2013

Change the Weather History Date:

Monday, June 17, 2013

  Actual Average (KSTC) Record (KSTC)
Temperature  
Mean Temperature 68 °F 66 °F  
Max Temperature 79 °F 78 °F 97 °F (1995)
Min Temperature 56 °F 54 °F 38 °F (2000)
Degree Days  
Heating Degree Days 0 2  
Month to date heating degree days 60  
Since 1 June heating degree days 60  
Since 1 July heating degree days 8514  
Cooling Degree Days 2 3  
Month to date cooling degree days 38  
Year to date cooling degree days 63  
Since 1 June cooling degree days 38  
Growing Degree Days 18 (Base 50)    
Moisture  
Dew Point 57 °F    
Average Humidity 67    
Maximum Humidity 92    
Minimum Humidity 47    
Precipitation  
Precipitation 0.00 in 0.15 in 2.84 in (1954)
Month to date precipitation 2.33  
Year to date precipitation 10.64  
Snow  
Snow 0.00 in 0.00 in T in (2011)
Month to date snowfall 0.0  
Since 1 June snowfall 0.0  
Since 1 July snowfall 45.7  
Snow Depth -    
Sea Level Pressure  
Sea Level Pressure 29.95 in    
Wind  
Wind Speed 5 mph (NW)    
Max Wind Speed 13 mph    
Max Gust Speed 20 mph    
Visibility 10 miles    
Events      
T = Trace of Precipitation, MM = Missing Value Source: NWS Daily Summary

Daily Weather History Graph

Daily Weather History Graph

Search for Another Location

Airport or City:

Trip Planner

Search our weather history database for the weather conditions in past years. The results will help you decide how hot, cold, wet, or windy it might be!

Date:

Astronomy

Jun. 17, 2013 Rise Set
Actual Time 5:27 AM CDT 9:06 PM CDT
Civil Twilight 4:50 AM CDT 9:43 PM CDT
Nautical Twilight 3:59 AM CDT 10:34 PM CDT
Astronomical Twilight 2:52 AM CDT 11:41 PM CDT
Moon 2:31 PM CDT (6/17) 1:19 AM CDT (6/17)
Length of Visible Light 16h 53m
Length of Day
15h 38m
First Quarter, 60% of the Moon is Illuminated
Jun 17
First Quarter
Jun 23
Full
Jun 29
Last Quarter
Jul 8
New
Jul 15
First Quarter

Hourly Weather History & Observations

Time (CDT) Temp. Dew Point Humidity Pressure Visibility Wind Dir Wind Speed Gust Speed Precip Events Conditions
12:16 AM 65.5 °F 59.0 °F 80% 29.89 in 10.0 mi Calm Calm - N/A   Clear
12:37 AM 63.9 °F 58.6 °F 83% 29.89 in 10.0 mi Calm Calm - N/A   Clear
12:56 AM 62.8 °F 58.5 °F 86% 29.90 in 10.0 mi WSW 3.5 mph - N/A   Clear
1:16 AM 64.0 °F 59.0 °F 84% 29.90 in 10.0 mi West 4.6 mph - N/A   Scattered Clouds
1:36 AM 64.9 °F 59.0 °F 81% 29.90 in 10.0 mi West 4.6 mph - N/A   Scattered Clouds
1:57 AM 64.2 °F 58.8 °F 83% 29.90 in 10.0 mi West 5.8 mph - N/A   Mostly Cloudy
2:16 AM 63.3 °F 57.7 °F 82% 29.89 in 10.0 mi WNW 3.5 mph - N/A   Scattered Clouds
2:37 AM 63.9 °F 57.2 °F 79% 29.89 in 10.0 mi Calm Calm - N/A   Clear
2:57 AM 61.5 °F 56.7 °F 84% 29.90 in 10.0 mi Calm Calm - N/A   Clear
3:16 AM 60.8 °F 56.7 °F 86% 29.90 in 10.0 mi West 3.5 mph - N/A   Clear
3:37 AM 59.9 °F 56.1 °F 87% 29.91 in 10.0 mi West 3.5 mph - N/A   Scattered Clouds
3:57 AM 60.3 °F 56.3 °F 87% 29.91 in 10.0 mi Calm Calm - N/A   Scattered Clouds
4:17 AM 58.6 °F 55.4 °F 89% 29.91 in 10.0 mi Calm Calm - N/A   Scattered Clouds
4:36 AM 57.9 °F 55.6 °F 92% 29.91 in 10.0 mi Calm Calm - N/A   Clear
4:57 AM 57.2 °F 55.0 °F 92% 29.91 in 10.0 mi Calm Calm - N/A   Clear
5:17 AM 56.5 °F 54.3 °F 92% 29.91 in 10.0 mi Calm Calm - N/A   Clear
5:36 AM 57.2 °F 54.7 °F 91% 29.91 in 10.0 mi West 3.5 mph - N/A   Clear
5:57 AM 60.6 °F 55.8 °F 84% 29.92 in 10.0 mi West 3.5 mph - N/A   Clear
6:16 AM 61.2 °F 56.3 °F 84% 29.92 in 10.0 mi West 3.5 mph - N/A   Clear
6:36 AM 61.3 °F 56.8 °F 85% 29.92 in 10.0 mi West 5.8 mph - N/A   Clear
6:56 AM 62.8 °F 57.7 °F 84% 29.93 in 10.0 mi WNW 5.8 mph - N/A   Clear
7:17 AM 65.1 °F 57.4 °F 76% 29.93 in 10.0 mi WNW 5.8 mph - N/A   Clear
7:36 AM 66.6 °F 57.9 °F 74% 29.93 in 10.0 mi West 4.6 mph - N/A   Clear
7:57 AM 68.9 °F 58.1 °F 68% 29.94 in 10.0 mi West 4.6 mph - N/A   Clear
8:17 AM 70.2 °F 57.7 °F 65% 29.94 in 10.0 mi West 6.9 mph - N/A   Clear
8:37 AM 70.7 °F 57.2 °F 62% 29.95 in 10.0 mi West 6.9 mph - N/A   Clear
8:56 AM 71.6 °F 57.2 °F 60% 29.95 in 10.0 mi West 8.1 mph - N/A   Scattered Clouds
9:17 AM 72.5 °F 56.8 °F 58% 29.95 in 10.0 mi West 8.1 mph - N/A   Scattered Clouds
9:37 AM 73.4 °F 58.1 °F 59% 29.95 in 10.0 mi WNW 6.9 mph - N/A   Clear
9:56 AM 73.9 °F 57.7 °F 57% 29.95 in 10.0 mi WNW 8.1 mph - N/A   Clear
10:16 AM 74.3 °F 57.6 °F 56% 29.95 in 10.0 mi WNW 9.2 mph - N/A   Clear
10:37 AM 74.7 °F 56.5 °F 53% 29.94 in 10.0 mi WNW 10.4 mph - N/A   Clear
10:57 AM 74.8 °F 56.8 °F 53% 29.95 in 10.0 mi WNW 12.7 mph - N/A   Scattered Clouds
11:16 AM 75.2 °F 57.6 °F 54% 29.95 in 10.0 mi West 10.4 mph - N/A   Scattered Clouds
11:36 AM 76.3 °F 57.9 °F 53% 29.95 in 10.0 mi WNW 9.2 mph - N/A   Clear
11:56 AM 76.5 °F 57.0 °F 51% 29.95 in 10.0 mi WNW 6.9 mph - N/A   Scattered Clouds
12:16 PM 77.5 °F 56.8 °F 49% 29.96 in 10.0 mi WNW 6.9 mph - N/A   Scattered Clouds
12:37 PM 76.1 °F 55.2 °F 48% 29.97 in 10.0 mi West 5.8 mph 9.2 mph N/A   Scattered Clouds
12:56 PM 76.5 °F 55.8 °F 49% 29.97 in 10.0 mi NW 6.9 mph - N/A   Mostly Cloudy
1:17 PM 76.8 °F 57.2 °F 51% 29.97 in 10.0 mi West 10.4 mph - N/A   Scattered Clouds
1:36 PM 76.6 °F 55.8 °F 48% 29.97 in 10.0 mi WNW 8.1 mph - N/A   Scattered Clouds
1:57 PM 75.2 °F 56.3 °F 52% 29.95 in 10.0 mi NW 6.9 mph - N/A   Mostly Cloudy
2:16 PM 76.5 °F 56.5 °F 50% 29.95 in 10.0 mi NW 8.1 mph - N/A   Mostly Cloudy
2:37 PM 74.8 °F 57.2 °F 54% 29.95 in 10.0 mi West 5.8 mph - N/A   Mostly Cloudy
2:56 PM 77.5 °F 58.1 °F 51% 29.95 in 10.0 mi West 6.9 mph - N/A   Scattered Clouds
3:17 PM 78.3 °F 57.7 °F 49% 29.95 in 10.0 mi WNW 8.1 mph - N/A   Clear
3:36 PM 78.8 °F 57.6 °F 48% 29.95 in 10.0 mi West 9.2 mph - N/A   Clear
3:57 PM 79.2 °F 57.4 °F 47% 29.95 in 10.0 mi NW 5.8 mph - N/A   Clear
4:16 PM 77.9 °F 57.2 °F 49% 29.94 in 10.0 mi WNW 8.1 mph - N/A   Scattered Clouds
4:37 PM 78.6 °F 59.7 °F 52% 29.95 in 10.0 mi NNE 12.7 mph 19.6 mph N/A   Mostly Cloudy
4:56 PM 74.1 °F 59.9 °F 61% 29.96 in 10.0 mi NE 11.5 mph - N/A   Mostly Cloudy
5:16 PM 77.0 °F 60.3 °F 56% 29.95 in 10.0 mi NE 9.2 mph - N/A   Scattered Clouds
5:36 PM 77.0 °F 60.3 °F 56% 29.95 in 10.0 mi ENE 8.1 mph - N/A   Clear
5:57 PM 77.0 °F 59.9 °F 55% 29.95 in 10.0 mi ENE 5.8 mph - N/A   Clear
6:17 PM 76.5 °F 59.7 °F 56% 29.95 in 10.0 mi ENE 6.9 mph - N/A   Scattered Clouds
6:36 PM 77.0 °F 59.2 °F 54% 29.95 in 10.0 mi NE 8.1 mph - N/A   Scattered Clouds
6:56 PM 75.0 °F 59.4 °F 58% 29.95 in 10.0 mi NE 9.2 mph - N/A   Scattered Clouds
7:17 PM 74.7 °F 59.4 °F 59% 29.95 in 10.0 mi NE 9.2 mph - N/A   Scattered Clouds
7:37 PM 73.4 °F 59.5 °F 62% 29.95 in 10.0 mi ENE 9.2 mph - N/A   Clear
7:57 PM 71.6 °F 59.7 °F 66% 29.95 in 10.0 mi ENE 6.9 mph - N/A   Clear
8:17 PM 71.1 °F 59.9 °F 68% 29.97 in 10.0 mi ENE 5.8 mph - N/A   Clear
8:36 PM 69.8 °F 60.1 °F 71% 29.97 in 10.0 mi ENE 4.6 mph - N/A   Clear
8:57 PM 70.7 °F 58.8 °F 66% 29.97 in 10.0 mi NE 10.4 mph - N/A   Scattered Clouds
9:16 PM 69.8 °F 58.1 °F 66% 29.99 in 10.0 mi NE 11.5 mph - N/A   Mostly Cloudy
9:36 PM 68.2 °F 57.6 °F 69% 30.00 in 10.0 mi NE 11.5 mph - N/A   Mostly Cloudy
9:57 PM 66.4 °F 56.7 °F 71% 30.01 in 10.0 mi NE 12.7 mph 16.1 mph N/A   Scattered Clouds
10:16 PM 64.8 °F 55.4 °F 72% 30.02 in 7.0 mi NE 10.4 mph 16.1 mph N/A   Clear
10:37 PM 63.7 °F 54.5 °F 72% 30.03 in 10.0 mi NE 9.2 mph - N/A   Scattered Clouds
10:56 PM 62.6 °F 54.5 °F 75% 30.04 in 10.0 mi NNE 5.8 mph - N/A   Mostly Cloudy
11:17 PM 60.8 °F 52.9 °F 75% 30.05 in 10.0 mi NE 8.1 mph - N/A   Scattered Clouds
11:36 PM 60.3 °F 52.5 °F 76% 30.05 in 10.0 mi NE 8.1 mph - N/A   Mostly Cloudy
11:57 PM 60.3 °F 52.2 °F 75% 30.05 in 10.0 mi NE 9.2 mph - N/A   Overcast